Weather in Podlesny

Russia / Orenburg Oblast     53°11′21″N   52°54′19″E
temp.,
°C
wind,
m/s
gust,
m/s
humid.,
%
clouds,
%
prec.,
mm/h
press.,
hPa
HPBL,
m
17 june, thu
thu1723:00+18ssw2287100 2.9 100914
02:00+17s368970 0.6 101096
05:00+17sw34923 0.8 100955
08:00+20wnw46843 0.0 1009286
11:00+21nw778395 0.0 1011764
14:00+19nnw7982100 0.1 1013851
17:00+22nnw79560 0.1 10141498
20:00+19nnw610650 0.0 1016677
18 june, fri
fri1823:00+14nnw412730 0.0 1018294
02:00+12nnw310810 0.0 1018189
05:00+11nw35814 0.0 101971
08:00+14nnw47720 0.0 1021363
11:00+17n67618 0.0 10211494
14:00+19n78494 0.0 10221916
17:00+20n68485 0.0 10222079
20:00+18nne36645 0.0 1023327
19 june, sat
sat1923:00+13nne22765 0.1 102511
02:00+11nnw228480 0.0 102619
05:00+10n228550 0.0 102717
08:00+14n23725 0.0 1028205
11:00+19nnw335585 0.0 1027915
14:00+21nw345047 0.0 10261155
17:00+22nw45535 0.0 10251169
20:00+20wnw36672 0.0 1024295
20 june, sun
sun2023:00+16w37850 0.0 1024105
02:00+15w38810 0.0 1024140
05:00+14w410870 0.0 1023177
08:00+19wnw59830 0.0 1023292
11:00+24wnw68690 0.0 1022722
14:00+27nw78560 0.0 10211756
17:00+27nnw68530 0.0 10202067
20:00+25nw49690 0.0 1020385
21 june, mon
mon2123:00+20nw33840 0.0 102139
02:00+19nw33900 0.0 102133
05:00+19nnw228696 0.0 102131
08:00+22n11780 0.0 1022174
11:00+26wnw11590 0.1 1021741
14:00+28nw334894 0.0 10212388
17:00+27wnw2357100 0.0 10201110
20:00+24wnw237147 0.1 101950